Location: Zagreb
(45.8000°N, 16.0000°E)
Time: 19:50:45
(UTC+01:00)

YUBILEINY - Pass Details

Date: 05 November 2020
Orbit: 1478 x 1509 km, 82.5° (Epoch: 01 December)

Event Time Altitude Azimuth Distance (km) Brightness Sun altitude
Rises 20:52:27 0° 350° (N) 4,610 ? -44.2°
Reaches altitude 10° 20:55:19 10° 350° (N) 3,627 ? -44.7°
Enters shadow 20:59:24 32° 351° (N) 2,316 ? -45.3°
